• Join FlightAware (Why Join?)
  • Login
  • US Flag 
12:01PM EST


 

Airport Tracker/Info


-or-


 

Live Flight TrackerFlight Track Log ✈ UAL5862 ✈ 25-Jun-2013 ✈ KORD - KLAN

Flight Track Log - Related Links

Times and Time Zones

All times are in EDT time to prevent confusion due to time zone crossing. See the UAL5862 flight status page for this flight to view local times or setup timezone preferences in your user account.

Time Position Orientation Groundspeed Altitude Reporting Facility
EDT Latitude Longitude Course Direction KTS MPH feet Rate Location/Type
06:25PM 42.0333 -87.9500 66° East 210 242 3,300  Level Chicago TRACON
06:26PM 42.0833 -87.8833 45° Northeast 275 316 4,800 1,674 Climbing Chicago TRACON
06:28PM 42.1422 -87.8222 38° Northeast 278 320 6,900 2,290 Climbing Chicago Center
06:29PM 42.1703 -87.7119 71° East 266 306 9,800 2,226 Climbing Chicago Center
06:30PM 42.1875 -87.6036 78° East 289 333 11,500 1,935 Climbing Chicago Center
06:31PM 42.1836 -87.3161 66° East  Level FlightAware Approximate
06:31PM 42.2081 -87.4875 77° East 315 362 13,800  Level Chicago Center
06:32PM 42.2269 -87.3681 78° East 324 373 15,000 629 Climbing Chicago Center
06:33PM 42.2489 -87.2472 76° East 331 381 15,100 1,113 Climbing Chicago Center
06:34PM 42.2681 -87.1261 78° East 331 381 17,300 1,742 Climbing Chicago Center
06:35PM 42.2828 -86.9817 82° East 326 375 18,700 823 Climbing Chicago Center
06:36PM 42.2883 -86.8431 87° East 363 418 19,000 145 Climbing Chicago Center
06:37PM 42.2936 -86.6797 87° East 416 479 19,000  Level Chicago Center
06:38PM 42.3003 -86.5106 87° East 447 514 19,000  Level Chicago Center
06:39PM 42.3333 -86.3469 75° East 457 526 19,000  Level Chicago Center
06:40PM 42.3742 -86.1911 70° East 448 516 19,000  Level Chicago Center
06:41PM 42.4150 -86.0333 71° East 448 516 19,000  Level Chicago Center
06:42PM 42.4644 -85.8411 71° East 453 521 19,000 -1,161 Level Chicago Center
06:43PM 42.5056 -85.6842 70° East 448 516 16,600 -2,129 Descending Chicago Center
06:44PM 42.5694 -85.5633 54° Northeast 406 467 14,600 -1,805 Descending Chicago Center
06:45PM 42.6283 -85.4511 54° Northeast 377 434 12,900 -1,756 Descending Chicago Center
06:46PM 42.6822 -85.3467 55° Northeast 355 409 11,000 -1,597 Descending Chicago Center
06:47PM 42.7325 -85.2492 55° Northeast 327 376 9,600 -919 Descending Chicago Center
06:48PM 42.7894 -85.1433 54° Northeast 296 341 9,100 -484 Descending Chicago Center
06:49PM 42.8136 -85.0333 73° East 305 351 8,600 -927 Descending Chicago Center
06:50PM 42.8206 -84.9164 85° East 312 359 7,200 -1,415 Descending Chicago Center
06:51PM 42.8292 -84.8014 84° East 309 356 5,700 -1,403 Descending Chicago Center
06:52PM 42.8369 -84.6936 84° East 294 338 4,300 -1,355 Descending Chicago Center